Regional Weather Roundup
Issued by NWS

Home | Current Version | Previous Version | Graphics & Text | Print | Product List | Glossary Off
Versions: 1 2 3 4 5 6 7 8 9 10 11 12 13 14 15 16 17 18 19 20 21 22 23 24 25 26 27 28 29 30 31 32 33 34 35 36 37 38 39 40 41 42 43 44 45 46 47 48 49 50

000
ASUS43 KDMX 181001
RWRIA

WEATHER ROUNDUP FOR IOWA
NATIONAL WEATHER SERVICE DES MOINES IA
400 AM CST MON DEC 18 2017

NOTE: "FAIR" INDICATES FEW OR NO CLOUDS BELOW 12,000 FEET WITH NO
SIGNIFICANT WEATHER AND/OR OBSTRUCTIONS TO VISIBILITY.

* - THESE STATIONS ARE NOT NWS STATIONS...THUS NOT UNDER NWS
QUALITY CONTROL.  THEY ALSO DO NOT REPORT WEATHER SUCH
AS PRECIPITATION OR FOG.

IAZ001>003-012>014-020>022-031>034-043>046-181100-
   NORTHWEST IOWA

CITY           SKY/WX    TMP DP  RH WIND       PRES   REMARKS
CARROLL *      CLOUDY    23  23 100 W5        29.93S FOG     WCI  17
DENISON *      CLOUDY    21  21 100 CALM      29.94F FOG
LE MARS *      CLEAR     21  21 100 S6        29.88F WCI  14
ORANGE CITY *  CLEAR     23  23 100 S6        29.86F FOG     WCI  16
SHELDON *      CLEAR     23  23 100 S6        29.85F WCI  16
SIOUX CITY     CLOUDY    18  17  96 E9        29.90F WCI   7
SPENCER        CLEAR     24  22  91 SW10      29.88F WCI  14
STORM LAKE *   CLOUDY    21  21 100 SW8       29.90S FOG     WCI  12
$$

IAZ055>058-069>071-079>083-090>094-181100-
   SOUTHWEST IOWA

CITY           SKY/WX    TMP DP  RH WIND       PRES   REMARKS
ATLANTIC *     FOG       23  23 100 SW6       29.96F VSB<1/4 WCI  16
AUDUBON *      CLOUDY    21  19  93 CALM      29.94F FOG
CLARINDA *     FOG       25  25 100 CALM      30.01S VSB<1/4
COUNCIL BLFS * CLOUDY    28  28 100 S7        29.95F FOG     WCI  21
CRESTON *      FOG       30  30 100 SW12      29.98S VSB 1/4 WCI  21
HARLAN  *      CLOUDY    19  21 100 S5        29.98F WCI  13
LAMONI         MOCLDY    33  31  92 W10       29.97F FOG     WCI  25
RED OAK *      FOG       27  27 100 SW5       29.98F VSB<1/4 WCI  21
SHENANDOAH *   MOCLDY    28  28 100 CALM      29.99F FOG
$$

IAZ047>049-059>061-072>074-084-181100-
   CENTRAL IOWA

CITY           SKY/WX    TMP DP  RH WIND       PRES   REMARKS
AMES           CLOUDY    25  25 100 SW6       29.94F FOG     WCI  18
ANKENY *       CLOUDY    23  23 100 SW5       29.97S FOG     WCI  17
BOONE *        PTCLDY    25  23  93 W7        29.93F FOG     WCI  17
CHARITON *     CLEAR     32  32 100 SW7       29.97S FOG     WCI  26
DES MOINES     CLEAR     25  23  92 SW9       29.96F FOG     WCI  15
GRINNELL*      CLEAR     27  26  95 W8        29.96S FOG     WCI  19
KNOXVILLE *    CLEAR     32  30  93 SW7       29.95S WCI  26
MARSHALLTOWN   PTCLDY    25  24  96 SW5       29.93F FOG     WCI  19
NEWTON *       CLEAR     25  25 100 SW7       29.96S FOG     WCI  17
PELLA *        CLEAR     31  29  94 W5        29.98S FOG     WCI  26
$$

IAZ004>006-015-016-023>025-035-036-181100-
   NORTH CENTRAL IOWA

CITY           SKY/WX    TMP DP  RH WIND       PRES   REMARKS
ALGONA *       CLEAR     21  21 100 SW7       29.89S FOG     WCI  13
CLARION *      FOG       21  21 100 S8        29.91F VSB<1/4 WCI  12
ESTHERVILLE    CLEAR     21  21 100 SW8       29.87F FOG     WCI  11
FORT DODGE *   CLOUDY    20  19  96 SW6       29.93F FOG     WCI  12
MASON CITY     CLOUDY    26  25  96 SW6       29.91F FOG     WCI  19
FOREST CITY *  CLOUDY    27  27 100 S5        29.89F FOG     WCI  21
WEBSTER CITY * CLEAR     21  19  93 SW8       29.90F FOG     WCI  12
IOWA FALLS *     N/A     22  21  95 SW5       29.94S FOG     WCI  16
$$

IAZ007>011-017>019-026>030-037>042-050>054-066-181100-
   NORTHEAST IOWA

CITY           SKY/WX    TMP DP  RH WIND       PRES   REMARKS
CEDAR RAPIDS   CLEAR     27  27 100 SW6       29.93F FOG     WCI  20
CLINTON *      CLOUDY    37  37 100 SW8       29.94F FOG     WCI  31
DECORAH *      CLOUDY    30  30 100 VRB3      29.90R FOG
DUBUQUE        PTCLDY    32  32 100 SW8       29.91S FOG     WCI  25
MONTICELLO *   CLEAR     32  30  93 SW5       29.93S FOG     WCI  27
OELWEIN *      CLOUDY    32  32 100 W12G18    29.93R FOG     WCI  23
WATERLOO       CLOUDY    31  27  85 W7        29.93S FOG     WCI  24
$$

IAZ064-065-067-068-078-181100-
   EAST CENTRAL IOWA

CITY           SKY/WX    TMP DP  RH WIND       PRES   REMARKS
DAVENPORT      CLOUDY    38  37  97 W9        29.96F FOG     WCI  31
IOWA CITY      CLOUDY    37  33  85 SW7       29.97F WCI  32
MT. PLEASANT * CLOUDY    42  42 100 S6        29.96F FOG
MUSCATINE *    CLOUDY    39  39 100 W7        29.96F FOG     WCI  34
QUAD CITIES    CLOUDY    42  40  92 SW7       29.94F FOG
$$

IAZ062-063-075>077-085>089-095>099-181100-
   SOUTHEAST IOWA

CITY           SKY/WX    TMP DP  RH WIND       PRES   REMARKS
BURLINGTON     CLOUDY    44  43  96 SW9       29.96S
FAIRFIELD *    FOG       39  39 100 W6        29.95F VSB 1/4 WCI  35
FORT MADISON * CLOUDY    45  45 100 SW6       29.97F FOG
KEOKUK *       CLOUDY    45  43  93 SW10      29.97F
OTTUMWA        CLOUDY    38  37  97 W6        29.95F FOG     WCI  33
WASHINGTON *   FOG       37  37 100 W5        29.96F VSB 1   WCI  34
$$

ABBREVIATIONS USED IN REMARKS
   TC - TEMPERATURES IN CELSIUS
  WCI - WIND CHILL INDEX
   HX - HEAT INDEX
  VSB - VISIBILITY
$$





USA.gov is the U.S. government's official web portal to all federal, state and local government web resources and services.